Cloud_Cover
41 0 0 0 4 1 4 1 2 0 0 0 0 0 0 0 0 0 0 3 9 62 5 1 97 100 100 100 100 99 100 100 100 99 100 100 100 100 100 100 100 100 100 100 100
4 2 0 3 2 0 0 0 3 8 4 11 0 0 0 0 0 0 0 0 0 1 35 5 0 74 100 100 100 99 22 100 100 100 100 100 100 100 100 100 100 100 100 100 100
5 5 5 67 72 5 3 0 84 26 12 17 0 0 0 0 0 0 0 0 0 0 0 6 5 0 57 100 100 100 17 100 100 100 100 100 100 100 100 100 100 100 100 100 100
83 5 0 0 0 4 5 13 74 89 2 0 2 3 0 0 0 0 0 0 0 0 0 0 2 5 0 28 100 100 100 100 100 100 100 86 100 100 100 100 100 100 100 100 100
4 1 0 0 0 5 75 100 42 0 0 0 4 1 0 0 0 0 0 0 0 0 0 0 0 0 1 2 0 94 100 100 100 70 45 100 100 100 100 100 100 100 100 100 100
3 0 0 0 0 13 5 0 0 0 0 1 0 7 8 1 0 0 0 0 0 0 0 0 0 0 0 0 0 0 96 100 100 100 33 38 100 100 100 100 100 100 100 100 100
0 0 0 0 0 0 0 0 0 0 0 0 5 5 7 4 0 0 0 0 0 0 0 0 0 0 0 0 0 0 0 100 100 97 82 94 96 100 100 100 100 100 100 100 100
0 0 0 0 0 0 0 0 0 1 5 5 5 70 94 3 0 0 0 0 0 0 0 0 0 0 0 0 0 0 0 1 100 100 83 72 95 100 100 100 100 100 85 100 100
0 0 0 0 2 2 2 0 1 68 84 100 100 100 49 2 0 0 0 0 0 0 0 0 0 0 0 0 0 0 0 0 50 100 100 14 99 100 100 100 100 100 100 97 100
0 0 0 0 5 5 5 5 20 59 100 100 100 91 4 1 0 0 0 0 0 0 0 0 0 0 0 0 0 0 0 0 1 98 89 8 91 100 100 100 100 100 100 99 100
0 0 5 57 93 0 2 5 90 100 100 100 76 5 5 0 0 0 0 0 0 0 0 0 0 0 0 0 0 0 0 0 0 22 100 13 100 100 100 100 100 100 100 98 100
6 42 100 100 86 1 1 35 100 98 56 46 7 20 0 0 0 0 1 0 0 0 0 0 0 0 0 0 0 0 0 4 0 0 100 100 100 100 100 100 100 100 100 100 100
5 55 100 100 8 0 4 92 100 28 2 0 0 0 4 1 0 0 2 5 4 5 1 3 2 57 4 0 0 0 2 0 4 0 43 100 100 100 100 100 100 100 100 100 100
51 100 87 0 7 12 54 100 90 28 2 2 6 30 21 5 0 3 44 6 48 98 76 5 43 100 100 89 0 4 4 5 5 16 2 100 17 78 91 100 100 100 100 100 100
100 91 0 0 8 89 100 100 88 66 9 0 5 9 5 4 9 57 100 100 100 100 100 54 100 100 100 100 79 3 94 5 4 25 4 100 98 100 96 100 100 100 100 100 99
34 4 0 26 100 100 100 59 41 100 20 3 2 63 44 42 93 94 100 100 100 99 100 87 100 92 100 100 100 69 100 99 21 97 85 90 66 100 13 100 100 100 100 100 100
3 0 4 91 100 98 16 31 73 38 5 17 5 2 24 3 34 100 100 100 100 100 99 100 100 100 91 100 100 100 100 100 100 100 99 29 96 5 66 100 100 100 100 100 100
0 0 16 76 11 4 19 86 32 55 5 2 0 0 79 98 99 100 100 100 91 98 64 99 100 79 100 88 99 100 100 100 100 100 7 99 100 100 39 100 100 100 100 100 100
0 3 96 56 5 5 67 12 60 10 0 2 5 99 100 100 100 100 100 97 100 93 100 69 79 100 89 87 68 100 100 100 44 4 39 5 100 100 100 100 100 100 99 100 100
1 4 38 5 5 2 0 0 10 0 6 97 100 100 100 100 100 100 44 100 100 99 99 91 97 100 100 97 100 99 92 98 88 99 100 35 100 100 98 98 100 100 81 100 100
2 5 5 5 0 0 1 1 0 99 100 100 100 100 100 100 100 100 100 100 99 97 99 100 100 100 94 79 100 100 100 99 100 100 100 100 100 100 100 100 100 100 100 100 100
5 5 5 0 0 5 5 100 100 100 100 100 100 100 100 100 100 100 100 100 54 100 100 100 100 100 100 17 84 100 100 100 100 100 100 100 100 100 100 100 100 100 100 100 100
5 1 0 2 4 32 82 100 100 100 100 100 100 100 100 100 100 100 100 100 98 100 100 100 100 100 100 100 100 100 100 50 76 99 98 100 100 100 100 100 100 100 100 100 100
0 44 3 4 12 28 99 100 100 100 100 100 100 100 100 100 100 86 100 100 100 100 100 100 100 100 100 64 100 100 100 100 100 100 100 100 100 100 100 100 100 100 100 100 100
2 0 0 4 7 80 49 100 100 100 100 100 100 100 100 100 100 100 100 100 100 100 100 100 100 100 100 35 100 95 100 100 100 100 100 100 100 100 100 100 100 100 100 100 100
32 9 0 4 0 5 98 100 100 100 100 100 100 100 100 100 100 100 100 100 100 100 100 100 99 100 100 100 100 100 100 100 100 98 100 100 100 100 100 100 100 100 100 86 100
0 1 20 0 0 5 100 100 100 100 70 100 100 100 93 79 85 93 100 100 100 100 100 100 100 100 97 87 56 99 100 100 100 100 100 100 100 100 100 100 100 100 100 100 100